Regional Weather Roundup
Issued by NWS

Home | Current Version | Previous Version | Text Only | Print | Product List | Glossary On
Versions: 1 2 3 4 5 6 7 8 9 10 11 12 13 14 15 16 17 18 19 20 21 22 23 24 25 26 27 28 29 30 31 32 33 34 35 36 37 38 39 40 41 42 43 44 45 46 47 48 49 50
000
ASUS43 KLSX 171757
RWRMO

WEATHER SUMMARY FOR MISSOURI
NATIONAL WEATHER SERVICE SPRINGFIELD MO
1200 PM CST WED JAN 17 2018

NOTE: "FAIR" INDICATES FEW OR NO CLOUDS BELOW 12,000 FEET WITH NO
       SIGNIFICANT WEATHER AND/OR OBSTRUCTIONS TO VISIBILITY.
       CURRENT SKY AND/OR WEATHER CONDITIONS ARE NOT AVAILABLE FOR
       CHILLICOTHE AND FARMINGTON.

MOZ001>031-035>038-043-044-053-054-171900-
...NORTHERN AND WESTERN MISSOURI...

CITY           SKY/WX    TMP DP  RH WIND       PRES   REMARKS
KANSAS CTY INT SUNNY     18   8  65 SW10      30.62F WCI   6
6HR MIN TEMP:  -1; 6HR MAX TEMP:  18;

LEE`S SUMMIT   SUNNY     19   7  59 SW12      30.64F WCI   7
6HR MIN TEMP:   1; 6HR MAX TEMP:  19;

ST JOSEPH        N/A    N/A N/A N/A MISG      30.62F
CHILLICOTHE      N/A     18   8  65 SW9       30.63F WCI   7
6HR MIN TEMP:  -5; 6HR MAX TEMP:  18;


$$
MOZ066>068-077>081-088>096-101>105-171900-
...SOUTHWEST MISSOURI...

CITY           SKY/WX    TMP DP  RH WIND       PRES   REMARKS
SPRINGFIELD    CLOUDY    13   5  70 SW8       30.66F WCI   2
6HR MIN TEMP:  -8; 6HR MAX TEMP:  13;

JOPLIN         CLOUDY    14   7  73 SW6       30.71F WCI   5
6HR MIN TEMP:  -4; 6HR MAX TEMP:  14; 6HR PCP: TRACE;

BRANSON        SUNNY     16   7  67 CALM      30.68F

$$
MOZ032>034-039>042-045>050-055>058-069>072-171900-
...CENTRAL MISSOURI...

CITY           SKY/WX    TMP DP  RH WIND       PRES   REMARKS
COLUMBIA       NOT AVBL
JEFFERSON CITY SUNNY     14   5  67 SW6       30.70F WCI   5
6HR MIN TEMP:  -3; 6HR MAX TEMP:  14;

ROLLA          SUNNY     14   6  70 SW6       30.65F WCI   5
6HR MIN TEMP:  -4; 6HR MAX TEMP:  14;

SEDALIA        SUNNY     16   9  74 SW8       30.66F WCI   5
6HR MIN TEMP:  -2; 6HR MAX TEMP:  16;

WARRENSBURG    SUNNY     19   9  63 SW9       30.67F WCI   9

$$
MOZ051-052-059>065-171900-
...EAST CENTRAL MISSOURI...

CITY           SKY/WX    TMP DP  RH WIND       PRES   REMARKS
ST LOUIS INTL  SUNNY     18   7  62 W9        30.67F WCI   7
6HR MIN TEMP:   3; 6HR MAX TEMP:  18;


$$
MOZ072>076-082>087-097>100-106>115-171900-
...SOUTH CENTRAL AND SOUTHEAST MISSOURI...

CITY           SKY/WX    TMP DP  RH WIND       PRES   REMARKS
CAPE GIRARDEAU FAIR      18   8  65 W6        30.71F WCI  10
6HR MIN TEMP:   7; 6HR MAX TEMP:  19;

POPLAR BLUFF   FAIR      16   7  67 S7        30.72F WCI   6
WEST PLAINS    SUNNY     19   7  59 W6        30.66F WCI  11
6HR MIN TEMP:  -3; 6HR MAX TEMP:  19;


$$



USA.gov is the U.S. government's official web portal to all federal, state and local government web resources and services.